Khon Kaen, Thailand

12:21 PM +07 on March 28, 2017 (GMT +0700)
Khon Kaen

Weather History for VTUK - September, 2013

Change the Weather History Date:

Wednesday, September 4, 2013

  Actual Average Record
Temperature  
Mean Temperature 84 °F -  
Max Temperature 93 °F 89 °F - ()
Min Temperature 75 °F 75 °F - ()
Cooling Degree Days 19    
Growing Degree Days 34 (Base 50)    
Moisture  
Dew Point 76 °F    
Average Humidity 82    
Maximum Humidity 100    
Minimum Humidity 53    
Precipitation  
Precipitation 0.39 in 0.30 in - ()
Sea Level Pressure  
Sea Level Pressure 29.75 in    
Wind  
Wind Speed 3 mph ()    
Max Wind Speed 12 mph    
Max Gust Speed 17 mph    
Visibility 5.6 miles    
Events Rain , Thunderstorm    
T = Trace of Precipitation, MM = Missing Value Source: Averaged Metar Reports

Daily Weather History Graph

Daily Weather History Graph

Search for Another Location

Airport or City:

Trip Planner

Search our weather history database for the weather conditions in past years. The results will help you decide how hot, cold, wet, or windy it might be!

Date:

Astronomy

Sep. 04, 2013 Rise Set
Actual Time 5:55 AM +07 6:19 PM +07
Civil Twilight 5:34 AM +07 6:41 PM +07
Nautical Twilight 5:08 AM +07 7:06 PM +07
Astronomical Twilight 4:42 AM +07 7:32 PM +07
Moon 4:40 AM +07 (9/4) 5:22 PM +07 (9/4)
Length of Visible Light 13h 07m
Length of Day
12h 23m
Waning Crescent, 2% of the Moon is Illuminated
Sep 4
Waning Crescent
Sep 5
New
Sep 13
First Quarter
Sep 19
Full
Sep 27
Last Quarter

Hourly Weather History & Observations

Time (+07) Temp. Heat Index Dew Point Humidity Pressure Visibility Wind Dir Wind Speed Gust Speed Precip Events Conditions
1:00 AM 79 °F - 74 °F 79% 29.66 in 6 mi Calm Calm - -   Scattered Clouds
1:00 AM 78.8 °F - 77.0 °F 94% 29.77 in 6.2 mi SSW 3.5 mph - N/A   Mostly Cloudy
4:00 AM 77.0 °F - 77.0 °F 100% 29.74 in 6.2 mi South 3.5 mph - N/A   Mostly Cloudy
5:00 AM 77.0 °F - 77.0 °F 100% 29.77 in 6.2 mi Variable 2.3 mph - N/A   Mostly Cloudy
6:00 AM 77.0 °F - 77.0 °F 100% 29.77 in 6.2 mi SSW 3.5 mph - N/A   Mostly Cloudy
7:00 AM 78.8 °F - 77.0 °F 94% 29.77 in 6.2 mi SW 4.6 mph - N/A   Overcast
8:00 AM 82.4 °F 90.9 °F 77.0 °F 84% 29.80 in 6.2 mi SW 4.6 mph - N/A   Mostly Cloudy
9:00 AM 84.2 °F 94.1 °F 77.0 °F 79% 29.80 in 6.2 mi WSW 6.9 mph - N/A   Mostly Cloudy
10:00 AM 87.8 °F 99.7 °F 77.0 °F 70% 29.80 in 6.2 mi Variable 3.5 mph - N/A   Mostly Cloudy
11:00 AM 89.6 °F 102.2 °F 77.0 °F 66% 29.80 in 6.2 mi Variable 3.5 mph - N/A   Mostly Cloudy
12:00 PM 89.6 °F 104.7 °F 78.8 °F 70% 29.80 in 6.2 mi WSW 3.5 mph - N/A   Mostly Cloudy
1:00 PM 90 °F - 75 °F 53% 29.75 in 6 mi Calm Calm - -   Scattered Clouds
1:00 PM 91.4 °F 105.1 °F 77.0 °F 63% 29.77 in 6.2 mi SSW 4.6 mph - N/A   Mostly Cloudy
2:00 PM 91.4 °F 105.1 °F 77.0 °F 63% 29.74 in 6.2 mi WNW 5.8 mph - N/A   Mostly Cloudy
3:00 PM 91.4 °F 105.1 °F 77.0 °F 63% 29.71 in 6.2 mi West 3.5 mph - N/A   Mostly Cloudy
5:00 PM 89.6 °F 102.2 °F 77.0 °F 66% 29.68 in 6.2 mi WNW 4.6 mph - N/A   Mostly Cloudy
6:00 PM 87.8 °F 104.9 °F 80.6 °F 79% 29.68 in 6.2 mi Variable 2.3 mph - N/A   Mostly Cloudy
7:00 PM 79 °F - 71 °F 70% 29.70 in 2 mi ENE 8.1 mph - - Rain , Thunderstorm Thunderstorms and Rain
7:00 PM 77.0 °F - 73.4 °F 89% 29.71 in 2.5 mi ENE 11.5 mph 17.3 mph N/A Rain , Thunderstorm Thunderstorms and Rain
8:00 PM 75.2 °F - 73.4 °F 94% 29.74 in 2.5 mi East 6.9 mph - N/A Rain , Thunderstorm Thunderstorms and Rain
9:00 PM 77.0 °F - 77.0 °F 100% 29.77 in 5.6 mi Variable 1.2 mph - N/A Rain , Thunderstorm Thunderstorms and Rain
10:00 PM 77.0 °F - 77.0 °F 100% 29.80 in 5.6 mi Calm Calm - N/A Thunderstorm Thunderstorm
11:00 PM 77.0 °F - 77.0 °F 100% 29.80 in 6.2 mi Calm Calm - N/A   Mostly Cloudy